Time,TemperatureF,DewpointF,PressureIn,WindDirection,WindDirectionDegrees,WindSpeedMPH,WindSpeedGustMPH,Humidity,HourlyPrecipIn,Conditions,Clouds,dailyrainin,SoftwareType,DateUTC
2014-09-23 00:01:00,59.0,53.5,30.14,SE,135,2.0,2.0,82,0.00,,,-99.99,Weather View 32 v70,2014-09-23 05:01:00,
2014-09-23 00:11:00,59.0,53.8,30.14,SE,135,1.0,2.0,83,0.00,,,-99.99,Weather View 32 v70,2014-09-23 05:11:00,
2014-09-23 00:20:00,58.0,52.5,30.14,SE,135,1.0,2.0,82,0.00,,,-99.99,Weather View 32 v70,2014-09-23 05:20:00,
2014-09-23 00:30:00,58.0,52.9,30.14,SE,135,0.0,2.0,83,0.00,,,-99.99,Weather View 32 v70,2014-09-23 05:30:00,
2014-09-23 00:40:00,58.0,53.2,30.15,SE,135,1.0,4.0,84,0.00,,,-99.99,Weather View 32 v70,2014-09-23 05:40:00,
2014-09-23 00:45:00,58.0,53.2,30.15,SE,135,3.0,4.0,84,0.00,,,-99.99,Weather View 32 v70,2014-09-23 05:45:00,
2014-09-23 00:55:00,58.0,53.2,30.15,SE,135,1.0,4.0,84,0.00,,,-99.99,Weather View 32 v70,2014-09-23 05:55:00,
2014-09-23 01:00:00,58.0,53.2,30.15,SE,135,1.0,4.0,84,0.00,,,-99.99,Weather View 32 v70,2014-09-23 06:00:00,
2014-09-23 01:05:00,58.0,52.9,30.15,SE,135,1.0,4.0,83,0.00,,,-99.99,Weather View 32 v70,2014-09-23 06:05:00,
2014-09-23 01:12:00,57.0,52.2,30.15,SSE,158,3.0,4.0,84,0.00,,,-99.99,Weather View 32 v70,2014-09-23 06:12:00,
2014-09-23 01:20:00,57.0,52.5,30.16,SE,135,2.0,4.0,85,0.00,,,-99.99,Weather View 32 v70,2014-09-23 06:20:00,
2014-09-23 01:25:00,57.0,52.5,30.16,SE,135,2.0,4.0,85,0.00,,,-99.99,Weather View 32 v70,2014-09-23 06:25:00,
2014-09-23 01:35:00,57.0,52.5,30.16,SSE,158,2.0,4.0,85,0.00,,,-99.99,Weather View 32 v70,2014-09-23 06:35:00,
2014-09-23 01:40:00,57.0,52.5,30.16,SSE,158,2.0,4.0,85,0.00,,,-99.99,Weather View 32 v70,2014-09-23 06:40:00,
2014-09-23 01:45:00,57.0,52.5,30.16,SSE,158,3.0,4.0,85,0.00,,,-99.99,Weather View 32 v70,2014-09-23 06:45:00,
2014-09-23 01:55:00,57.0,52.5,30.16,SSE,158,1.0,3.0,85,0.00,,,-99.99,Weather View 32 v70,2014-09-23 06:55:00,
2014-09-23 02:05:00,57.0,52.5,30.16,SE,135,1.0,3.0,85,0.00,,,-99.99,Weather View 32 v70,2014-09-23 07:05:00,
2014-09-23 02:10:00,57.0,52.5,30.16,SE,135,2.0,3.0,85,0.00,,,-99.99,Weather View 32 v70,2014-09-23 07:10:00,
2014-09-23 02:20:00,56.0,51.9,30.16,SSE,158,2.0,3.0,86,0.00,,,-99.99,Weather View 32 v70,2014-09-23 07:20:00,
2014-09-23 02:30:00,56.0,51.9,30.16,SE,135,1.0,4.0,86,0.00,,,-99.99,Weather View 32 v70,2014-09-23 07:30:00,
2014-09-23 02:35:00,56.0,52.2,30.16,SE,135,1.0,4.0,87,0.00,,,-99.99,Weather View 32 v70,2014-09-23 07:35:00,
2014-09-23 02:40:00,56.0,52.2,30.15,SE,135,2.0,4.0,87,0.00,,,-99.99,Weather View 32 v70,2014-09-23 07:40:00,
2014-09-23 02:50:00,56.0,52.2,30.15,SSE,158,3.0,4.0,87,0.00,,,-99.99,Weather View 32 v70,2014-09-23 07:50:00,
2014-09-23 02:55:00,56.0,52.2,30.15,SSE,158,2.0,4.0,87,0.00,,,-99.99,Weather View 32 v70,2014-09-23 07:55:00,
2014-09-23 03:05:00,56.0,52.2,30.15,South,180,1.0,4.0,87,0.00,,,-99.99,Weather View 32 v70,2014-09-23 08:05:00,
2014-09-23 03:16:00,56.0,52.2,30.15,SE,135,2.0,4.0,87,0.00,,,-99.99,Weather View 32 v70,2014-09-23 08:16:00,
2014-09-23 03:25:00,56.0,52.2,30.14,SSE,158,2.0,3.0,87,0.00,,,-99.99,Weather View 32 v70,2014-09-23 08:25:00,
2014-09-23 03:30:00,56.0,52.2,30.14,SSE,158,1.0,3.0,87,0.00,,,-99.99,Weather View 32 v70,2014-09-23 08:30:00,
2014-09-23 03:35:00,56.0,52.2,30.14,SE,135,1.0,4.0,87,0.00,,,-99.99,Weather View 32 v70,2014-09-23 08:35:00,
2014-09-23 03:45:00,56.0,52.2,30.15,SSE,158,1.0,4.0,87,0.00,,,-99.99,Weather View 32 v70,2014-09-23 08:45:00,
2014-09-23 03:55:00,56.0,52.5,30.14,SSE,158,1.0,4.0,88,0.00,,,-99.99,Weather View 32 v70,2014-09-23 08:55:00,
2014-09-23 04:05:00,56.0,52.2,30.14,SSE,158,1.0,4.0,87,0.00,,,-99.99,Weather View 32 v70,2014-09-23 09:05:00,
2014-09-23 04:10:00,56.0,52.2,30.14,SSE,158,1.0,4.0,87,0.00,,,-99.99,Weather View 32 v70,2014-09-23 09:10:00,
2014-09-23 04:15:00,56.0,52.2,30.14,South,180,1.0,4.0,87,0.00,,,-99.99,Weather View 32 v70,2014-09-23 09:15:00,
2014-09-23 04:25:00,55.0,51.2,30.14,SSE,158,1.0,4.0,87,0.00,,,-99.99,Weather View 32 v70,2014-09-23 09:25:00,
2014-09-23 04:30:00,55.0,51.2,30.14,SE,135,2.0,4.0,87,0.00,,,-99.99,Weather View 32 v70,2014-09-23 09:30:00,
2014-09-23 04:35:00,55.0,51.2,30.14,SSE,158,1.0,4.0,87,0.00,,,-99.99,Weather View 32 v70,2014-09-23 09:35:00,
2014-09-23 04:40:00,55.0,51.2,30.14,SSE,158,1.0,4.0,87,0.00,,,-99.99,Weather View 32 v70,2014-09-23 09:40:00,
2014-09-23 04:45:00,55.0,51.2,30.14,SSE,158,2.0,4.0,87,0.00,,,-99.99,Weather View 32 v70,2014-09-23 09:45:00,
2014-09-23 04:50:00,55.0,51.2,30.15,SE,135,2.0,4.0,87,0.00,,,-99.99,Weather View 32 v70,2014-09-23 09:50:00,
2014-09-23 04:55:00,55.0,51.5,30.15,SSE,158,2.0,4.0,88,0.00,,,-99.99,Weather View 32 v70,2014-09-23 09:55:00,
2014-09-23 05:05:00,55.0,51.5,30.15,SSE,158,2.0,4.0,88,0.00,,,-99.99,Weather View 32 v70,2014-09-23 10:05:00,
2014-09-23 05:10:00,55.0,51.5,30.15,SSE,158,1.0,4.0,88,0.00,,,-99.99,Weather View 32 v70,2014-09-23 10:10:00,
2014-09-23 05:15:00,55.0,51.5,30.15,SSE,158,3.0,4.0,88,0.00,,,-99.99,Weather View 32 v70,2014-09-23 10:15:00,
2014-09-23 05:25:00,54.0,50.5,30.15,SSE,158,1.0,4.0,88,0.00,,,-99.99,Weather View 32 v70,2014-09-23 10:25:00,
2014-09-23 05:30:00,54.0,50.5,30.15,East,90,2.0,4.0,88,0.00,,,-99.99,Weather View 32 v70,2014-09-23 10:30:00,
2014-09-23 05:35:00,54.0,50.5,30.15,ESE,112,0.0,4.0,88,0.00,,,-99.99,Weather View 32 v70,2014-09-23 10:35:00,
2014-09-23 05:45:00,53.0,49.8,30.15,East,90,0.0,4.0,89,0.00,,,-99.99,Weather View 32 v70,2014-09-23 10:45:00,
2014-09-23 05:55:00,53.0,50.1,30.15,ESE,112,3.0,4.0,90,0.00,,,-99.99,Weather View 32 v70,2014-09-23 10:55:00,
2014-09-23 06:01:00,53.0,50.1,30.15,SE,135,1.0,4.0,90,0.00,,,-99.99,Weather View 32 v70,2014-09-23 11:01:00,
2014-09-23 06:10:00,53.0,50.4,30.16,SE,135,2.0,4.0,91,0.00,,,-99.99,Weather View 32 v70,2014-09-23 11:10:00,
2014-09-23 06:15:00,53.0,50.4,30.16,SE,135,1.0,4.0,91,0.00,,,-99.99,Weather View 32 v70,2014-09-23 11:15:00,
2014-09-23 06:22:00,53.0,50.4,30.16,SE,135,1.0,4.0,91,0.00,,,-99.99,Weather View 32 v70,2014-09-23 11:22:00,
2014-09-23 06:30:00,53.0,50.7,30.16,SSE,158,2.0,4.0,92,0.00,,,-99.99,Weather View 32 v70,2014-09-23 11:30:00,
2014-09-23 06:40:00,53.0,50.7,30.16,SE,135,3.0,4.0,92,0.00,,,-99.99,Weather View 32 v70,2014-09-23 11:40:00,
2014-09-23 06:50:00,53.0,50.4,30.16,SSE,158,2.0,4.0,91,0.00,,,-99.99,Weather View 32 v70,2014-09-23 11:50:00,
2014-09-23 06:55:00,53.0,50.4,30.16,SE,135,3.0,4.0,91,0.00,,,-99.99,Weather View 32 v70,2014-09-23 11:55:00,
2014-09-23 07:05:00,53.0,50.4,30.16,SE,135,1.0,4.0,91,0.00,,,-99.99,Weather View 32 v70,2014-09-23 12:05:00,
2014-09-23 07:10:00,53.0,50.4,30.17,SE,135,1.0,4.0,91,0.00,,,-99.99,Weather View 32 v70,2014-09-23 12:10:00,
2014-09-23 07:15:00,54.0,51.4,30.17,SSE,158,2.0,4.0,91,0.00,,,-99.99,Weather View 32 v70,2014-09-23 12:15:00,
2014-09-23 07:23:00,54.0,51.4,30.18,SSE,158,2.0,4.0,91,0.00,,,-99.99,Weather View 32 v70,2014-09-23 12:23:00,
2014-09-23 07:30:00,54.0,51.4,30.18,SE,135,3.0,5.0,91,0.00,,,-99.99,Weather View 32 v70,2014-09-23 12:30:00,
2014-09-23 07:35:00,54.0,51.4,30.18,SE,135,2.0,5.0,91,0.00,,,-99.99,Weather View 32 v70,2014-09-23 12:35:00,
2014-09-23 07:45:00,55.0,52.1,30.18,SSE,158,3.0,5.0,90,0.00,,,-99.99,Weather View 32 v70,2014-09-23 12:45:00,
2014-09-23 07:50:00,56.0,53.1,30.18,SE,135,2.0,5.0,90,0.00,,,-99.99,Weather View 32 v70,2014-09-23 12:50:00,
2014-09-23 07:55:00,56.0,52.8,30.18,SE,135,2.0,5.0,89,0.00,,,-99.99,Weather View 32 v70,2014-09-23 12:55:00,
2014-09-23 08:05:00,57.0,53.2,30.18,SE,135,2.0,5.0,87,0.00,,,-99.99,Weather View 32 v70,2014-09-23 13:05:00,
2014-09-23 08:10:00,57.0,52.8,30.18,SE,135,1.0,5.0,86,0.00,,,-99.99,Weather View 32 v70,2014-09-23 13:10:00,
2014-09-23 08:15:00,58.0,53.8,30.18,SSE,158,1.0,5.0,86,0.00,,,-99.99,Weather View 32 v70,2014-09-23 13:15:00,
2014-09-23 08:25:00,58.0,53.5,30.18,SSE,158,4.0,5.0,85,0.00,,,-99.99,Weather View 32 v70,2014-09-23 13:25:00,
2014-09-23 08:30:00,59.0,53.8,30.19,SSE,158,3.0,7.0,83,0.00,,,-99.99,Weather View 32 v70,2014-09-23 13:30:00,
2014-09-23 08:40:00,60.0,54.1,30.19,ESE,112,5.0,7.0,81,0.00,,,-99.99,Weather View 32 v70,2014-09-23 13:40:00,
2014-09-23 08:45:00,61.0,54.8,30.19,SSE,158,2.0,7.0,80,0.00,,,-99.99,Weather View 32 v70,2014-09-23 13:45:00,
2014-09-23 08:55:00,61.0,54.1,30.19,South,180,2.0,7.0,78,0.00,,,-99.99,Weather View 32 v70,2014-09-23 13:55:00,
2014-09-23 09:00:00,61.0,53.7,30.19,SSE,158,5.0,7.0,77,0.00,,,-99.99,Weather View 32 v70,2014-09-23 14:00:00,
2014-09-23 09:05:00,62.0,54.7,30.19,SSE,158,3.0,7.0,77,0.00,,,-99.99,Weather View 32 v70,2014-09-23 14:05:00,
2014-09-23 09:10:00,62.0,54.3,30.20,SSW,202,3.0,7.0,76,0.00,,,-99.99,Weather View 32 v70,2014-09-23 14:10:00,
2014-09-23 09:15:00,62.0,54.3,30.20,SE,135,5.0,7.0,76,0.00,,,-99.99,Weather View 32 v70,2014-09-23 14:15:00,
2014-09-23 09:20:00,62.0,54.0,30.20,SSW,202,3.0,9.0,75,0.00,,,-99.99,Weather View 32 v70,2014-09-23 14:20:00,
2014-09-23 09:25:00,62.0,54.0,30.20,South,180,4.0,9.0,75,0.00,,,-99.99,Weather View 32 v70,2014-09-23 14:25:00,
2014-09-23 09:35:00,63.0,54.6,30.20,SSE,158,6.0,9.0,74,0.00,,,-99.99,Weather View 32 v70,2014-09-23 14:35:00,
2014-09-23 09:40:00,64.0,55.5,30.20,SSW,202,2.0,9.0,74,0.00,,,-99.99,Weather View 32 v70,2014-09-23 14:40:00,
2014-09-23 09:45:00,64.0,54.8,30.20,SSW,202,7.0,12.0,72,0.00,,,-99.99,Weather View 32 v70,2014-09-23 14:45:00,
2014-09-23 09:55:00,65.0,55.7,30.20,SSW,202,4.0,12.0,72,0.00,,,-99.99,Weather View 32 v70,2014-09-23 14:55:00,
2014-09-23 10:00:00,65.0,55.3,30.20,SSE,158,4.0,12.0,71,0.00,,,-99.99,Weather View 32 v70,2014-09-23 15:00:00,
2014-09-23 10:05:00,66.0,56.3,30.19,SSE,158,3.0,12.0,71,0.00,,,-99.99,Weather View 32 v70,2014-09-23 15:05:00,
2014-09-23 10:15:00,66.0,55.5,30.19,SSW,202,3.0,12.0,69,0.00,,,-99.99,Weather View 32 v70,2014-09-23 15:15:00,
2014-09-23 10:20:00,67.0,56.1,30.19,SSE,158,3.0,12.0,68,0.00,,,-99.99,Weather View 32 v70,2014-09-23 15:20:00,
2014-09-23 10:25:00,67.0,55.6,30.19,SW,225,3.0,12.0,67,0.00,,,-99.99,Weather View 32 v70,2014-09-23 15:25:00,
2014-09-23 10:30:00,67.0,55.6,30.19,SW,225,6.0,12.0,67,0.00,,,-99.99,Weather View 32 v70,2014-09-23 15:30:00,
2014-09-23 10:35:00,67.0,55.2,30.19,South,180,5.0,12.0,66,0.00,,,-99.99,Weather View 32 v70,2014-09-23 15:35:00,
2014-09-23 10:40:00,67.0,54.8,30.19,South,180,7.0,12.0,65,0.00,,,-99.99,Weather View 32 v70,2014-09-23 15:40:00,
2014-09-23 10:45:00,67.0,55.2,30.19,SSW,202,4.0,12.0,66,0.00,,,-99.99,Weather View 32 v70,2014-09-23 15:45:00,
2014-09-23 10:50:00,68.0,56.2,30.19,SSW,202,4.0,11.0,66,0.00,,,-99.99,Weather View 32 v70,2014-09-23 15:50:00,
2014-09-23 10:55:00,69.0,57.1,30.18,SSW,202,3.0,11.0,66,0.00,,,-99.99,Weather View 32 v70,2014-09-23 15:55:00,
2014-09-23 11:05:00,69.0,56.3,30.18,SW,225,3.0,11.0,64,0.00,,,-99.99,Weather View 32 v70,2014-09-23 16:05:00,
2014-09-23 11:15:00,69.0,55.8,30.18,SSE,158,6.0,11.0,63,0.00,,,-99.99,Weather View 32 v70,2014-09-23 16:15:00,
2014-09-23 11:20:00,70.0,56.3,30.18,South,180,4.0,11.0,62,0.00,,,-99.99,Weather View 32 v70,2014-09-23 16:20:00,
2014-09-23 11:25:00,70.0,56.3,30.17,SSW,202,4.0,11.0,62,0.00,,,-99.99,Weather View 32 v70,2014-09-23 16:25:00,
2014-09-23 11:35:00,70.0,55.9,30.17,SSW,202,4.0,15.0,61,0.00,,,-99.99,Weather View 32 v70,2014-09-23 16:35:00,
2014-09-23 11:40:00,70.0,55.9,30.17,SSE,158,4.0,17.0,61,0.00,,,-99.99,Weather View 32 v70,2014-09-23 16:40:00,
2014-09-23 11:45:00,70.0,56.3,30.17,SSW,202,4.0,17.0,62,0.00,,,-99.99,Weather View 32 v70,2014-09-23 16:45:00,
2014-09-23 11:55:00,71.0,55.9,30.17,SSW,202,6.0,17.0,59,0.00,,,-99.99,Weather View 32 v70,2014-09-23 16:55:00,
2014-09-23 12:00:00,71.0,55.9,30.17,SE,135,3.0,17.0,59,0.00,,,-99.99,Weather View 32 v70,2014-09-23 17:00:00,
2014-09-23 12:10:00,70.0,55.0,30.17,SSW,202,10.0,17.0,59,0.00,,,-99.99,Weather View 32 v70,2014-09-23 17:10:00,
2014-09-23 12:20:00,72.0,57.3,30.17,SSW,202,6.0,17.0,60,0.00,,,-99.99,Weather View 32 v70,2014-09-23 17:20:00,
2014-09-23 12:25:00,72.0,56.8,30.17,South,180,3.0,17.0,59,0.00,,,-99.99,Weather View 32 v70,2014-09-23 17:25:00,
2014-09-23 12:32:00,72.0,56.8,30.17,South,180,8.0,17.0,59,0.00,,,-99.99,Weather View 32 v70,2014-09-23 17:32:00,
2014-09-23 12:40:00,72.0,55.4,30.16,South,180,4.0,15.0,56,0.00,,,-99.99,Weather View 32 v70,2014-09-23 17:40:00,
2014-09-23 12:45:00,73.0,56.3,30.16,SSE,158,3.0,15.0,56,0.00,,,-99.99,Weather View 32 v70,2014-09-23 17:45:00,
2014-09-23 12:50:00,73.0,55.3,30.16,SSW,202,7.0,15.0,54,0.00,,,-99.99,Weather View 32 v70,2014-09-23 17:50:00,
2014-09-23 12:55:00,72.0,54.9,30.16,SE,135,7.0,17.0,55,0.00,,,-99.99,Weather View 32 v70,2014-09-23 17:55:00,
2014-09-23 13:05:00,73.0,55.8,30.15,SSW,202,4.0,17.0,55,0.00,,,-99.99,Weather View 32 v70,2014-09-23 18:05:00,
2014-09-23 13:15:00,74.0,55.2,30.14,WSW,248,4.0,17.0,52,0.00,,,-99.99,Weather View 32 v70,2014-09-23 18:15:00,
2014-09-23 13:25:00,74.0,54.1,30.14,SSW,202,5.0,17.0,50,0.00,,,-99.99,Weather View 32 v70,2014-09-23 18:25:00,
2014-09-23 13:30:00,74.0,53.6,30.14,SW,225,4.0,17.0,49,0.00,,,-99.99,Weather View 32 v70,2014-09-23 18:30:00,
2014-09-23 13:35:00,74.0,53.6,30.14,SSE,158,8.0,17.0,49,0.00,,,-99.99,Weather View 32 v70,2014-09-23 18:35:00,
2014-09-23 13:45:00,74.0,52.4,30.14,South,180,5.0,17.0,47,0.00,,,-99.99,Weather View 32 v70,2014-09-23 18:45:00,
2014-09-23 13:50:00,74.0,51.8,30.14,SE,135,12.0,19.0,46,0.00,,,-99.99,Weather View 32 v70,2014-09-23 18:50:00,
2014-09-23 14:00:00,75.0,53.9,30.13,SW,225,6.0,19.0,48,0.00,,,-99.99,Weather View 32 v70,2014-09-23 19:00:00,
2014-09-23 14:10:00,74.0,53.0,30.13,SSE,158,10.0,19.0,48,0.00,,,-99.99,Weather View 32 v70,2014-09-23 19:10:00,
2014-09-23 14:15:00,74.0,53.0,30.13,SSW,202,6.0,19.0,48,0.00,,,-99.99,Weather View 32 v70,2014-09-23 19:15:00,
2014-09-23 14:25:00,74.0,53.6,30.13,SSW,202,12.0,19.0,49,0.00,,,-99.99,Weather View 32 v70,2014-09-23 19:25:00,
2014-09-23 14:30:00,74.0,53.6,30.13,South,180,7.0,19.0,49,0.00,,,-99.99,Weather View 32 v70,2014-09-23 19:30:00,
2014-09-23 14:35:00,74.0,53.6,30.13,SE,135,7.0,19.0,49,0.00,,,-99.99,Weather View 32 v70,2014-09-23 19:35:00,
2014-09-23 14:45:00,73.0,53.2,30.13,SW,225,4.0,19.0,50,0.00,,,-99.99,Weather View 32 v70,2014-09-23 19:45:00,
2014-09-23 14:50:00,73.0,53.7,30.13,South,180,8.0,19.0,51,0.00,,,-99.99,Weather View 32 v70,2014-09-23 19:50:00,
2014-09-23 15:00:00,72.0,53.9,30.12,SSW,202,4.0,19.0,53,0.00,,,-99.99,Weather View 32 v70,2014-09-23 20:00:00,
2014-09-23 15:05:00,73.0,55.3,30.12,SSW,202,4.0,18.0,54,0.00,,,-99.99,Weather View 32 v70,2014-09-23 20:05:00,
2014-09-23 15:10:00,73.0,54.3,30.12,South,180,3.0,18.0,52,0.00,,,-99.99,Weather View 32 v70,2014-09-23 20:10:00,
2014-09-23 15:20:00,73.0,54.3,30.11,SSE,158,5.0,18.0,52,0.00,,,-99.99,Weather View 32 v70,2014-09-23 20:20:00,
2014-09-23 15:25:00,73.0,54.8,30.11,SSW,202,3.0,18.0,53,0.00,,,-99.99,Weather View 32 v70,2014-09-23 20:25:00,
2014-09-23 15:30:00,73.0,55.3,30.11,SW,225,2.0,18.0,54,0.00,,,-99.99,Weather View 32 v70,2014-09-23 20:30:00,
2014-09-23 15:41:00,73.0,55.3,30.11,SSW,202,4.0,18.0,54,0.00,,,-99.99,Weather View 32 v70,2014-09-23 20:41:00,
2014-09-23 15:50:00,72.0,54.4,30.11,SSE,158,10.0,16.0,54,0.00,,,-99.99,Weather View 32 v70,2014-09-23 20:50:00,
2014-09-23 16:00:00,72.0,53.4,30.11,SSW,202,10.0,16.0,52,0.00,,,-99.99,Weather View 32 v70,2014-09-23 21:00:00,
2014-09-23 16:10:00,73.0,54.3,30.10,SSW,202,4.0,16.0,52,0.00,,,-99.99,Weather View 32 v70,2014-09-23 21:10:00,
2014-09-23 16:15:00,73.0,53.2,30.10,ESE,112,5.0,17.0,50,0.00,,,-99.99,Weather View 32 v70,2014-09-23 21:15:00,
2014-09-23 16:25:00,73.0,53.7,30.10,South,180,4.0,17.0,51,0.00,,,-99.99,Weather View 32 v70,2014-09-23 21:25:00,
2014-09-23 16:30:00,73.0,53.7,30.10,ESE,112,4.0,17.0,51,0.00,,,-99.99,Weather View 32 v70,2014-09-23 21:30:00,
2014-09-23 16:40:00,72.0,52.8,30.10,SSW,202,7.0,17.0,51,0.00,,,-99.99,Weather View 32 v70,2014-09-23 21:40:00,
2014-09-23 16:45:00,72.0,53.4,30.10,SSE,158,4.0,17.0,52,0.00,,,-99.99,Weather View 32 v70,2014-09-23 21:45:00,
2014-09-23 16:50:00,73.0,54.3,30.10,SSE,158,6.0,17.0,52,0.00,,,-99.99,Weather View 32 v70,2014-09-23 21:50:00,
2014-09-23 16:55:00,73.0,54.3,30.10,SSE,158,3.0,17.0,52,0.00,,,-99.99,Weather View 32 v70,2014-09-23 21:55:00,
2014-09-23 17:05:00,72.0,53.4,30.09,SSW,202,4.0,17.0,52,0.00,,,-99.99,Weather View 32 v70,2014-09-23 22:05:00,
2014-09-23 17:10:00,72.0,53.9,30.09,SSW,202,5.0,17.0,53,0.00,,,-99.99,Weather View 32 v70,2014-09-23 22:10:00,
2014-09-23 17:15:00,72.0,54.4,30.09,South,180,8.0,17.0,54,0.00,,,-99.99,Weather View 32 v70,2014-09-23 22:15:00,
2014-09-23 17:25:00,72.0,53.9,30.09,SSE,158,11.0,14.0,53,0.00,,,-99.99,Weather View 32 v70,2014-09-23 22:25:00,
2014-09-23 17:30:00,72.0,54.4,30.09,SSE,158,2.0,14.0,54,0.00,,,-99.99,Weather View 32 v70,2014-09-23 22:30:00,
2014-09-23 17:35:00,73.0,54.8,30.09,SE,135,7.0,14.0,53,0.00,,,-99.99,Weather View 32 v70,2014-09-23 22:35:00,
2014-09-23 17:50:00,72.0,53.4,30.09,SSE,158,6.0,14.0,52,0.00,,,-99.99,Weather View 32 v70,2014-09-23 22:50:00,
2014-09-23 18:01:00,72.0,53.4,30.09,SSW,202,5.0,15.0,52,0.00,,,-99.99,Weather View 32 v70,2014-09-23 23:01:00,
2014-09-23 18:08:00,72.0,53.4,30.09,SSW,202,5.0,15.0,52,0.00,,,-99.99,Weather View 32 v70,2014-09-23 23:08:00,
2014-09-23 18:15:00,72.0,54.4,30.09,SSE,158,4.0,15.0,54,0.00,,,-99.99,Weather View 32 v70,2014-09-23 23:15:00,
2014-09-23 18:25:00,71.0,54.0,30.08,East,90,3.0,15.0,55,0.00,,,-99.99,Weather View 32 v70,2014-09-23 23:25:00,
2014-09-23 18:33:00,71.0,54.5,30.08,SE,135,3.0,15.0,56,0.00,,,-99.99,Weather View 32 v70,2014-09-23 23:33:00,
2014-09-23 18:40:00,71.0,54.5,30.08,SSE,158,8.0,15.0,56,0.00,,,-99.99,Weather View 32 v70,2014-09-23 23:40:00,
2014-09-23 18:50:00,70.0,54.0,30.08,SE,135,6.0,15.0,57,0.00,,,-99.99,Weather View 32 v70,2014-09-23 23:50:00,
2014-09-23 19:06:00,70.0,54.5,30.08,SSE,158,6.0,11.0,58,0.00,,,-99.99,Weather View 32 v70,2014-09-24 00:06:00,
2014-09-23 19:15:00,70.0,55.0,30.08,South,180,2.0,11.0,59,0.00,,,-99.99,Weather View 32 v70,2014-09-24 00:15:00,
2014-09-23 19:20:00,69.0,54.0,30.08,SSE,158,4.0,11.0,59,0.00,,,-99.99,Weather View 32 v70,2014-09-24 00:20:00,
2014-09-23 19:30:00,69.0,54.5,30.08,South,180,3.0,11.0,60,0.00,,,-99.99,Weather View 32 v70,2014-09-24 00:30:00,
2014-09-23 19:40:00,69.0,55.0,30.08,SSE,158,3.0,11.0,61,0.00,,,-99.99,Weather View 32 v70,2014-09-24 00:40:00,
2014-09-23 19:45:00,69.0,55.0,30.09,SE,135,6.0,11.0,61,0.00,,,-99.99,Weather View 32 v70,2014-09-24 00:45:00,
2014-09-23 19:55:00,69.0,55.4,30.09,SSE,158,7.0,11.0,62,0.00,,,-99.99,Weather View 32 v70,2014-09-24 00:55:00,
2014-09-23 20:01:00,68.0,54.5,30.10,SSE,158,4.0,11.0,62,0.00,,,-99.99,Weather View 32 v70,2014-09-24 01:01:00,
2014-09-23 20:10:00,68.0,54.9,30.10,South,180,6.0,11.0,63,0.00,,,-99.99,Weather View 32 v70,2014-09-24 01:10:00,
2014-09-23 20:20:00,68.0,54.9,30.10,SE,135,3.0,11.0,63,0.00,,,-99.99,Weather View 32 v70,2014-09-24 01:20:00,
2014-09-23 20:30:00,68.0,54.9,30.10,South,180,5.0,11.0,63,0.00,,,-99.99,Weather View 32 v70,2014-09-24 01:30:00,
2014-09-23 20:40:00,67.0,54.4,30.10,South,180,5.0,11.0,64,0.00,,,-99.99,Weather View 32 v70,2014-09-24 01:40:00,
2014-09-23 20:45:00,67.0,54.4,30.11,South,180,5.0,11.0,64,0.00,,,-99.99,Weather View 32 v70,2014-09-24 01:45:00,
2014-09-23 20:55:00,67.0,54.4,30.11,SSE,158,5.0,11.0,64,0.00,,,-99.99,Weather View 32 v70,2014-09-24 01:55:00,
2014-09-23 21:02:00,67.0,54.8,30.11,SSW,202,2.0,11.0,65,0.00,,,-99.99,Weather View 32 v70,2014-09-24 02:02:00,
2014-09-23 21:10:00,67.0,54.4,30.11,SSE,158,6.0,11.0,64,0.00,,,-99.99,Weather View 32 v70,2014-09-24 02:10:00,
2014-09-23 21:16:00,67.0,54.4,30.12,South,180,3.0,11.0,64,0.00,,,-99.99,Weather View 32 v70,2014-09-24 02:16:00,
2014-09-23 21:25:00,67.0,54.4,30.12,South,180,6.0,11.0,64,0.00,,,-99.99,Weather View 32 v70,2014-09-24 02:25:00,
2014-09-23 21:30:00,67.0,54.4,30.12,SSE,158,8.0,11.0,64,0.00,,,-99.99,Weather View 32 v70,2014-09-24 02:30:00,
2014-09-23 21:35:00,67.0,54.4,30.12,South,180,5.0,10.0,64,0.00,,,-99.99,Weather View 32 v70,2014-09-24 02:35:00,
2014-09-23 21:45:00,67.0,54.0,30.12,South,180,4.0,10.0,63,0.00,,,-99.99,Weather View 32 v70,2014-09-24 02:45:00,
2014-09-23 21:55:00,67.0,54.0,30.13,South,180,3.0,13.0,63,0.00,,,-99.99,Weather View 32 v70,2014-09-24 02:55:00,
2014-09-23 22:02:00,67.0,54.0,30.13,South,180,3.0,13.0,63,0.00,,,-99.99,Weather View 32 v70,2014-09-24 03:02:00,
2014-09-23 22:05:00,67.0,54.0,30.13,SSW,202,3.0,13.0,63,0.00,,,-99.99,Weather View 32 v70,2014-09-24 03:05:00,
2014-09-23 22:12:00,67.0,54.0,30.14,SSW,202,3.0,13.0,63,0.00,,,-99.99,Weather View 32 v70,2014-09-24 03:12:00,
2014-09-23 22:20:00,66.0,53.4,30.14,South,180,4.0,13.0,64,0.00,,,-99.99,Weather View 32 v70,2014-09-24 03:20:00,
2014-09-23 22:30:00,67.0,54.0,30.14,South,180,3.0,13.0,63,0.00,,,-99.99,Weather View 32 v70,2014-09-24 03:30:00,
2014-09-23 22:35:00,67.0,54.0,30.14,SSW,202,5.0,13.0,63,0.00,,,-99.99,Weather View 32 v70,2014-09-24 03:35:00,
2014-09-23 22:45:00,67.0,54.0,30.14,South,180,2.0,13.0,63,0.00,,,-99.99,Weather View 32 v70,2014-09-24 03:45:00,
2014-09-23 22:50:00,67.0,53.5,30.15,ESE,112,10.0,16.0,62,0.00,,,-99.99,Weather View 32 v70,2014-09-24 03:50:00,
2014-09-23 22:55:00,67.0,53.5,30.15,South,180,5.0,16.0,62,0.00,,,-99.99,Weather View 32 v70,2014-09-24 03:55:00,
2014-09-23 23:01:00,67.0,53.5,30.14,South,180,7.0,16.0,62,0.00,,,-99.99,Weather View 32 v70,2014-09-24 04:01:00,
2014-09-23 23:10:00,67.0,53.5,30.15,SSE,158,3.0,16.0,62,0.00,,,-99.99,Weather View 32 v70,2014-09-24 04:10:00,
2014-09-23 23:15:00,67.0,53.5,30.15,South,180,7.0,16.0,62,0.00,,,-99.99,Weather View 32 v70,2014-09-24 04:15:00,
2014-09-23 23:25:00,66.0,52.6,30.15,South,180,6.0,16.0,62,0.00,,,-99.99,Weather View 32 v70,2014-09-24 04:25:00,
2014-09-23 23:30:00,66.0,53.0,30.15,SSE,158,5.0,16.0,63,0.00,,,-99.99,Weather View 32 v70,2014-09-24 04:30:00,
2014-09-23 23:40:00,66.0,53.0,30.15,SSW,202,3.0,16.0,63,0.00,,,-99.99,Weather View 32 v70,2014-09-24 04:40:00,
2014-09-23 23:45:00,66.0,53.0,30.15,SE,135,5.0,16.0,63,0.00,,,-99.99,Weather View 32 v70,2014-09-24 04:45:00,